Index of /20260503/WXO-DD/model_gdps/15km/00/045
Name Last modified Size Description
Parent Directory -
20260503T00Z_MSC_GDPS_AbsoluteVorticity_IsbL-0200_LatLon0.15_PT045H.grib2 2026-05-03 04:04 1.5M
20260503T00Z_MSC_GDPS_AbsoluteVorticity_IsbL-0250_LatLon0.15_PT045H.grib2 2026-05-03 04:04 1.3M
20260503T00Z_MSC_GDPS_AbsoluteVorticity_IsbL-0500_LatLon0.15_PT045H.grib2 2026-05-03 04:04 1.4M
20260503T00Z_MSC_GDPS_AbsoluteVorticity_IsbL-0700_LatLon0.15_PT045H.grib2 2026-05-03 04:04 1.6M
20260503T00Z_MSC_GDPS_AbsoluteVorticity_IsbL-0850_LatLon0.15_PT045H.grib2 2026-05-03 04:04 1.6M
20260503T00Z_MSC_GDPS_AirTemp_AGL-120m_LatLon0.15_PT045H.grib2 2026-05-03 04:04 906K
20260503T00Z_MSC_GDPS_AirTemp_AGL-2m_LatLon0.15_PT045H.grib2 2026-05-03 04:04 1.0M
20260503T00Z_MSC_GDPS_AirTemp_AGL-40m_LatLon0.15_PT045H.grib2 2026-05-03 04:04 813K
20260503T00Z_MSC_GDPS_AirTemp_AGL-80m_LatLon0.15_PT045H.grib2 2026-05-03 04:04 800K
20260503T00Z_MSC_GDPS_AirTemp_IsbL-0001_LatLon0.15_PT045H.grib2 2026-05-03 04:04 658K
20260503T00Z_MSC_GDPS_AirTemp_IsbL-0005_LatLon0.15_PT045H.grib2 2026-05-03 04:04 686K
20260503T00Z_MSC_GDPS_AirTemp_IsbL-0010_LatLon0.15_PT045H.grib2 2026-05-03 04:04 700K
20260503T00Z_MSC_GDPS_AirTemp_IsbL-0020_LatLon0.15_PT045H.grib2 2026-05-03 04:04 791K
20260503T00Z_MSC_GDPS_AirTemp_IsbL-0030_LatLon0.15_PT045H.grib2 2026-05-03 04:04 759K
20260503T00Z_MSC_GDPS_AirTemp_IsbL-0050_LatLon0.15_PT045H.grib2 2026-05-03 04:04 816K
20260503T00Z_MSC_GDPS_AirTemp_IsbL-0100_LatLon0.15_PT045H.grib2 2026-05-03 04:04 972K
20260503T00Z_MSC_GDPS_AirTemp_IsbL-0150_LatLon0.15_PT045H.grib2 2026-05-03 04:04 1.0M
20260503T00Z_MSC_GDPS_AirTemp_IsbL-0175_LatLon0.15_PT045H.grib2 2026-05-03 04:04 964K
20260503T00Z_MSC_GDPS_AirTemp_IsbL-0200_LatLon0.15_PT045H.grib2 2026-05-03 04:04 1.0M
20260503T00Z_MSC_GDPS_AirTemp_IsbL-0225_LatLon0.15_PT045H.grib2 2026-05-03 04:04 1.0M
20260503T00Z_MSC_GDPS_AirTemp_IsbL-0250_LatLon0.15_PT045H.grib2 2026-05-03 04:04 1.0M
20260503T00Z_MSC_GDPS_AirTemp_IsbL-0275_LatLon0.15_PT045H.grib2 2026-05-03 04:04 1.0M
20260503T00Z_MSC_GDPS_AirTemp_IsbL-0300_LatLon0.15_PT045H.grib2 2026-05-03 04:04 1.0M
20260503T00Z_MSC_GDPS_AirTemp_IsbL-0350_LatLon0.15_PT045H.grib2 2026-05-03 04:04 930K
20260503T00Z_MSC_GDPS_AirTemp_IsbL-0400_LatLon0.15_PT045H.grib2 2026-05-03 04:04 944K
20260503T00Z_MSC_GDPS_AirTemp_IsbL-0450_LatLon0.15_PT045H.grib2 2026-05-03 04:04 965K
20260503T00Z_MSC_GDPS_AirTemp_IsbL-0500_LatLon0.15_PT045H.grib2 2026-05-03 04:04 1.0M
20260503T00Z_MSC_GDPS_AirTemp_IsbL-0550_LatLon0.15_PT045H.grib2 2026-05-03 04:04 805K
20260503T00Z_MSC_GDPS_AirTemp_IsbL-0600_LatLon0.15_PT045H.grib2 2026-05-03 04:04 891K
20260503T00Z_MSC_GDPS_AirTemp_IsbL-0650_LatLon0.15_PT045H.grib2 2026-05-03 04:04 917K
20260503T00Z_MSC_GDPS_AirTemp_IsbL-0700_LatLon0.15_PT045H.grib2 2026-05-03 04:04 952K
20260503T00Z_MSC_GDPS_AirTemp_IsbL-0750_LatLon0.15_PT045H.grib2 2026-05-03 04:04 1.0M
20260503T00Z_MSC_GDPS_AirTemp_IsbL-0800_LatLon0.15_PT045H.grib2 2026-05-03 04:04 1.1M
20260503T00Z_MSC_GDPS_AirTemp_IsbL-0850_LatLon0.15_PT045H.grib2 2026-05-03 04:04 1.1M
20260503T00Z_MSC_GDPS_AirTemp_IsbL-0875_LatLon0.15_PT045H.grib2 2026-05-03 04:04 1.1M
20260503T00Z_MSC_GDPS_AirTemp_IsbL-0900_LatLon0.15_PT045H.grib2 2026-05-03 04:04 1.1M
20260503T00Z_MSC_GDPS_AirTemp_IsbL-0925_LatLon0.15_PT045H.grib2 2026-05-03 04:04 1.1M
20260503T00Z_MSC_GDPS_AirTemp_IsbL-0950_LatLon0.15_PT045H.grib2 2026-05-03 04:04 1.1M
20260503T00Z_MSC_GDPS_AirTemp_IsbL-0970_LatLon0.15_PT045H.grib2 2026-05-03 04:04 1.1M
20260503T00Z_MSC_GDPS_AirTemp_IsbL-0985_LatLon0.15_PT045H.grib2 2026-05-03 04:04 1.1M
20260503T00Z_MSC_GDPS_AirTemp_IsbL-1000_LatLon0.15_PT045H.grib2 2026-05-03 04:04 1.1M
20260503T00Z_MSC_GDPS_AirTemp_IsbL-1015_LatLon0.15_PT045H.grib2 2026-05-03 04:04 1.1M
20260503T00Z_MSC_GDPS_Albedo_Sfc_LatLon0.15_PT045H.grib2 2026-05-03 04:04 243K
20260503T00Z_MSC_GDPS_CAPE_Sfc_LatLon0.15_PT045H.grib2 2026-05-03 04:04 3.9M
20260503T00Z_MSC_GDPS_CIN_Sfc_LatLon0.15_PT045H.grib2 2026-05-03 04:04 2.8M
20260503T00Z_MSC_GDPS_CloudWater_EAtm_LatLon0.15_PT045H.grib2 2026-05-03 04:04 531K
20260503T00Z_MSC_GDPS_ConvectivePrecip-Accum_Sfc_LatLon0.15_PT045H.grib2 2026-05-03 04:04 2.9M
20260503T00Z_MSC_GDPS_DewPointDepression_AGL-2m_LatLon0.15_PT045H.grib2 2026-05-03 04:04 766K
20260503T00Z_MSC_GDPS_DewPointDepression_IsbL-0010_LatLon0.15_PT045H.grib2 2026-05-03 04:04 77K
20260503T00Z_MSC_GDPS_DewPointDepression_IsbL-0020_LatLon0.15_PT045H.grib2 2026-05-03 04:04 76K
20260503T00Z_MSC_GDPS_DewPointDepression_IsbL-0030_LatLon0.15_PT045H.grib2 2026-05-03 04:04 87K
20260503T00Z_MSC_GDPS_DewPointDepression_IsbL-0050_LatLon0.15_PT045H.grib2 2026-05-03 04:04 388K
20260503T00Z_MSC_GDPS_DewPointDepression_IsbL-0100_LatLon0.15_PT045H.grib2 2026-05-03 04:04 412K
20260503T00Z_MSC_GDPS_DewPointDepression_IsbL-0150_LatLon0.15_PT045H.grib2 2026-05-03 04:04 472K
20260503T00Z_MSC_GDPS_DewPointDepression_IsbL-0175_LatLon0.15_PT045H.grib2 2026-05-03 04:04 579K
20260503T00Z_MSC_GDPS_DewPointDepression_IsbL-0200_LatLon0.15_PT045H.grib2 2026-05-03 04:04 688K
20260503T00Z_MSC_GDPS_DewPointDepression_IsbL-0225_LatLon0.15_PT045H.grib2 2026-05-03 04:04 788K
20260503T00Z_MSC_GDPS_DewPointDepression_IsbL-0250_LatLon0.15_PT045H.grib2 2026-05-03 04:04 873K
20260503T00Z_MSC_GDPS_DewPointDepression_IsbL-0275_LatLon0.15_PT045H.grib2 2026-05-03 04:04 891K
20260503T00Z_MSC_GDPS_DewPointDepression_IsbL-0300_LatLon0.15_PT045H.grib2 2026-05-03 04:04 931K
20260503T00Z_MSC_GDPS_DewPointDepression_IsbL-0350_LatLon0.15_PT045H.grib2 2026-05-03 04:04 962K
20260503T00Z_MSC_GDPS_DewPointDepression_IsbL-0400_LatLon0.15_PT045H.grib2 2026-05-03 04:04 1.0M
20260503T00Z_MSC_GDPS_DewPointDepression_IsbL-0450_LatLon0.15_PT045H.grib2 2026-05-03 04:04 1.0M
20260503T00Z_MSC_GDPS_DewPointDepression_IsbL-0500_LatLon0.15_PT045H.grib2 2026-05-03 04:04 1.0M
20260503T00Z_MSC_GDPS_DewPointDepression_IsbL-0550_LatLon0.15_PT045H.grib2 2026-05-03 04:04 1.0M
20260503T00Z_MSC_GDPS_DewPointDepression_IsbL-0600_LatLon0.15_PT045H.grib2 2026-05-03 04:04 1.0M
20260503T00Z_MSC_GDPS_DewPointDepression_IsbL-0650_LatLon0.15_PT045H.grib2 2026-05-03 04:04 1.1M
20260503T00Z_MSC_GDPS_DewPointDepression_IsbL-0700_LatLon0.15_PT045H.grib2 2026-05-03 04:04 1.1M
20260503T00Z_MSC_GDPS_DewPointDepression_IsbL-0750_LatLon0.15_PT045H.grib2 2026-05-03 04:04 1.1M
20260503T00Z_MSC_GDPS_DewPointDepression_IsbL-0800_LatLon0.15_PT045H.grib2 2026-05-03 04:04 1.1M
20260503T00Z_MSC_GDPS_DewPointDepression_IsbL-0850_LatLon0.15_PT045H.grib2 2026-05-03 04:04 1.1M
20260503T00Z_MSC_GDPS_DewPointDepression_IsbL-0875_LatLon0.15_PT045H.grib2 2026-05-03 04:04 1.1M
20260503T00Z_MSC_GDPS_DewPointDepression_IsbL-0900_LatLon0.15_PT045H.grib2 2026-05-03 04:04 1.0M
20260503T00Z_MSC_GDPS_DewPointDepression_IsbL-0925_LatLon0.15_PT045H.grib2 2026-05-03 04:04 1.0M
20260503T00Z_MSC_GDPS_DewPointDepression_IsbL-0950_LatLon0.15_PT045H.grib2 2026-05-03 04:04 1.0M
20260503T00Z_MSC_GDPS_DewPointDepression_IsbL-0970_LatLon0.15_PT045H.grib2 2026-05-03 04:04 1.0M
20260503T00Z_MSC_GDPS_DewPointDepression_IsbL-0985_LatLon0.15_PT045H.grib2 2026-05-03 04:04 1.0M
20260503T00Z_MSC_GDPS_DewPointDepression_IsbL-1000_LatLon0.15_PT045H.grib2 2026-05-03 04:04 1.0M
20260503T00Z_MSC_GDPS_DewPointDepression_IsbL-1015_LatLon0.15_PT045H.grib2 2026-05-03 04:04 921K
20260503T00Z_MSC_GDPS_DewPoint_AGL-2m_LatLon0.15_PT045H.grib2 2026-05-03 04:04 606K
20260503T00Z_MSC_GDPS_DownwardLongwaveRadiationFlux-Accum_Sfc_LatLon0.15_PT045H.grib2 2026-05-03 04:04 771K
20260503T00Z_MSC_GDPS_DownwardShortwaveRadiationFlux-Accum_NTAtm_LatLon0.15_PT045H.grib2 2026-05-03 04:04 258K
20260503T00Z_MSC_GDPS_DownwardShortwaveRadiationFlux-Accum_Sfc_LatLon0.15_PT045H.grib2 2026-05-03 04:04 1.0M
20260503T00Z_MSC_GDPS_FreezingRain-Accum1h_Sfc_LatLon0.15_PT045H.grib2 2026-05-03 04:04 40K
20260503T00Z_MSC_GDPS_FreezingRain-Accum3h_Sfc_LatLon0.15_PT045H.grib2 2026-05-03 04:04 43K
20260503T00Z_MSC_GDPS_FreezingRain-Accum_Sfc_LatLon0.15_PT045H.grib2 2026-05-03 04:04 191K
20260503T00Z_MSC_GDPS_GeopotentialHeight_IsbL-0001_LatLon0.15_PT045H.grib2 2026-05-03 04:04 423K
20260503T00Z_MSC_GDPS_GeopotentialHeight_IsbL-0005_LatLon0.15_PT045H.grib2 2026-05-03 04:04 493K
20260503T00Z_MSC_GDPS_GeopotentialHeight_IsbL-0010_LatLon0.15_PT045H.grib2 2026-05-03 04:04 482K
20260503T00Z_MSC_GDPS_GeopotentialHeight_IsbL-0020_LatLon0.15_PT045H.grib2 2026-05-03 04:04 415K
20260503T00Z_MSC_GDPS_GeopotentialHeight_IsbL-0030_LatLon0.15_PT045H.grib2 2026-05-03 04:04 573K
20260503T00Z_MSC_GDPS_GeopotentialHeight_IsbL-0050_LatLon0.15_PT045H.grib2 2026-05-03 04:04 574K
20260503T00Z_MSC_GDPS_GeopotentialHeight_IsbL-0100_LatLon0.15_PT045H.grib2 2026-05-03 04:04 613K
20260503T00Z_MSC_GDPS_GeopotentialHeight_IsbL-0150_LatLon0.15_PT045H.grib2 2026-05-03 04:04 629K
20260503T00Z_MSC_GDPS_GeopotentialHeight_IsbL-0175_LatLon0.15_PT045H.grib2 2026-05-03 04:04 633K
20260503T00Z_MSC_GDPS_GeopotentialHeight_IsbL-0200_LatLon0.15_PT045H.grib2 2026-05-03 04:04 638K
20260503T00Z_MSC_GDPS_GeopotentialHeight_IsbL-0225_LatLon0.15_PT045H.grib2 2026-05-03 04:04 637K
20260503T00Z_MSC_GDPS_GeopotentialHeight_IsbL-0250_LatLon0.15_PT045H.grib2 2026-05-03 04:04 647K
20260503T00Z_MSC_GDPS_GeopotentialHeight_IsbL-0275_LatLon0.15_PT045H.grib2 2026-05-03 04:04 646K
20260503T00Z_MSC_GDPS_GeopotentialHeight_IsbL-0300_LatLon0.15_PT045H.grib2 2026-05-03 04:04 637K
20260503T00Z_MSC_GDPS_GeopotentialHeight_IsbL-0350_LatLon0.15_PT045H.grib2 2026-05-03 04:04 633K
20260503T00Z_MSC_GDPS_GeopotentialHeight_IsbL-0400_LatLon0.15_PT045H.grib2 2026-05-03 04:04 623K
20260503T00Z_MSC_GDPS_GeopotentialHeight_IsbL-0450_LatLon0.15_PT045H.grib2 2026-05-03 04:04 613K
20260503T00Z_MSC_GDPS_GeopotentialHeight_IsbL-0500_LatLon0.15_PT045H.grib2 2026-05-03 04:04 599K
20260503T00Z_MSC_GDPS_GeopotentialHeight_IsbL-0550_LatLon0.15_PT045H.grib2 2026-05-03 04:04 529K
20260503T00Z_MSC_GDPS_GeopotentialHeight_IsbL-0600_LatLon0.15_PT045H.grib2 2026-05-03 04:04 525K
20260503T00Z_MSC_GDPS_GeopotentialHeight_IsbL-0650_LatLon0.15_PT045H.grib2 2026-05-03 04:04 691K
20260503T00Z_MSC_GDPS_GeopotentialHeight_IsbL-0700_LatLon0.15_PT045H.grib2 2026-05-03 04:04 691K
20260503T00Z_MSC_GDPS_GeopotentialHeight_IsbL-0750_LatLon0.15_PT045H.grib2 2026-05-03 04:04 693K
20260503T00Z_MSC_GDPS_GeopotentialHeight_IsbL-0800_LatLon0.15_PT045H.grib2 2026-05-03 04:04 702K
20260503T00Z_MSC_GDPS_GeopotentialHeight_IsbL-0850_LatLon0.15_PT045H.grib2 2026-05-03 04:04 712K
20260503T00Z_MSC_GDPS_GeopotentialHeight_IsbL-0875_LatLon0.15_PT045H.grib2 2026-05-03 04:04 716K
20260503T00Z_MSC_GDPS_GeopotentialHeight_IsbL-0900_LatLon0.15_PT045H.grib2 2026-05-03 04:04 723K
20260503T00Z_MSC_GDPS_GeopotentialHeight_IsbL-0925_LatLon0.15_PT045H.grib2 2026-05-03 04:04 730K
20260503T00Z_MSC_GDPS_GeopotentialHeight_IsbL-0950_LatLon0.15_PT045H.grib2 2026-05-03 04:04 737K
20260503T00Z_MSC_GDPS_GeopotentialHeight_IsbL-0970_LatLon0.15_PT045H.grib2 2026-05-03 04:04 747K
20260503T00Z_MSC_GDPS_GeopotentialHeight_IsbL-0985_LatLon0.15_PT045H.grib2 2026-05-03 04:04 763K
20260503T00Z_MSC_GDPS_GeopotentialHeight_IsbL-1000_LatLon0.15_PT045H.grib2 2026-05-03 04:04 784K
20260503T00Z_MSC_GDPS_GeopotentialHeight_IsbL-1015_LatLon0.15_PT045H.grib2 2026-05-03 04:04 614K
20260503T00Z_MSC_GDPS_Humidex_Sfc_LatLon0.15_PT045H.grib2 2026-05-03 04:04 5.3M
20260503T00Z_MSC_GDPS_IcePellets-Accum1h_Sfc_LatLon0.15_PT045H.grib2 2026-05-03 04:04 12K
20260503T00Z_MSC_GDPS_IcePellets-Accum3h_Sfc_LatLon0.15_PT045H.grib2 2026-05-03 04:04 14K
20260503T00Z_MSC_GDPS_IcePellets-Accum_Sfc_LatLon0.15_PT045H.grib2 2026-05-03 04:04 43K
20260503T00Z_MSC_GDPS_KIndex_Sfc_LatLon0.15_PT045H.grib2 2026-05-03 04:04 6.5M
20260503T00Z_MSC_GDPS_LatentHeatNetFlux_Sfc_LatLon0.15_PT045H.grib2 2026-05-03 04:04 679K
20260503T00Z_MSC_GDPS_LiftedIndex-MU-VT_IsbL-0500_LatLon0.15_PT045H.grib2 2026-05-03 04:04 5.4M
20260503T00Z_MSC_GDPS_NetLongwaveRadiationFlux-Accum_Sfc_LatLon0.15_PT045H.grib2 2026-05-03 04:04 1.1M
20260503T00Z_MSC_GDPS_NetShortwaveRadiationFlux-Accum_Sfc_LatLon0.15_PT045H.grib2 2026-05-03 04:04 1.0M
20260503T00Z_MSC_GDPS_O3MixingRatio_Sfc_LatLon0.15_PT045H.grib2 2026-05-03 04:45 2.0M
20260503T00Z_MSC_GDPS_O3_EAtm_LatLon0.15_PT045H.grib2 2026-05-03 04:45 2.5M
20260503T00Z_MSC_GDPS_PlanetaryBoundaryLayerHeight_Sfc_LatLon0.15_PT045H.grib2 2026-05-03 04:04 2.4M
20260503T00Z_MSC_GDPS_Precip-Accum1h_Sfc_LatLon0.15_PT045H.grib2 2026-05-03 04:04 3.2M
20260503T00Z_MSC_GDPS_Precip-Accum3h_Sfc_LatLon0.15_PT045H.grib2 2026-05-03 04:04 3.5M
20260503T00Z_MSC_GDPS_Precip-Accum_Sfc_LatLon0.15_PT045H.grib2 2026-05-03 04:04 4.8M
20260503T00Z_MSC_GDPS_PrecipRate_Sfc_LatLon0.15_PT045H.grib2 2026-05-03 04:04 3.1M
20260503T00Z_MSC_GDPS_PrecipType-Instant_Sfc_LatLon0.15_PT045H.grib2 2026-05-03 04:04 1.6M
20260503T00Z_MSC_GDPS_Pressure_MSL_LatLon0.15_PT045H.grib2 2026-05-03 04:04 833K
20260503T00Z_MSC_GDPS_Pressure_PVU-1.5_LatLon0.15_PT045H.grib2 2026-05-03 04:04 5.8M
20260503T00Z_MSC_GDPS_Pressure_PVU-1_LatLon0.15_PT045H.grib2 2026-05-03 04:04 6.0M
20260503T00Z_MSC_GDPS_Pressure_PVU-2_LatLon0.15_PT045H.grib2 2026-05-03 04:04 5.6M
20260503T00Z_MSC_GDPS_Pressure_Sfc_LatLon0.15_PT045H.grib2 2026-05-03 04:04 1.1M
20260503T00Z_MSC_GDPS_RadiativeTemp_Sfc_LatLon0.15_PT045H.grib2 2026-05-03 04:04 655K
20260503T00Z_MSC_GDPS_Rain-Accum1h_Sfc_LatLon0.15_PT045H.grib2 2026-05-03 04:04 1.6M
20260503T00Z_MSC_GDPS_Rain-Accum3h_Sfc_LatLon0.15_PT045H.grib2 2026-05-03 04:04 1.8M
20260503T00Z_MSC_GDPS_Rain-Accum_Sfc_LatLon0.15_PT045H.grib2 2026-05-03 04:04 3.6M
20260503T00Z_MSC_GDPS_RelativeHumidity_AGL-2m_LatLon0.15_PT045H.grib2 2026-05-03 04:04 1.0M
20260503T00Z_MSC_GDPS_RelativeHumidity_IsbL-0010_LatLon0.15_PT045H.grib2 2026-05-03 04:04 140K
20260503T00Z_MSC_GDPS_RelativeHumidity_IsbL-0020_LatLon0.15_PT045H.grib2 2026-05-03 04:04 175K
20260503T00Z_MSC_GDPS_RelativeHumidity_IsbL-0030_LatLon0.15_PT045H.grib2 2026-05-03 04:04 273K
20260503T00Z_MSC_GDPS_RelativeHumidity_IsbL-0050_LatLon0.15_PT045H.grib2 2026-05-03 04:04 342K
20260503T00Z_MSC_GDPS_RelativeHumidity_IsbL-0100_LatLon0.15_PT045H.grib2 2026-05-03 04:04 517K
20260503T00Z_MSC_GDPS_RelativeHumidity_IsbL-0150_LatLon0.15_PT045H.grib2 2026-05-03 04:04 666K
20260503T00Z_MSC_GDPS_RelativeHumidity_IsbL-0175_LatLon0.15_PT045H.grib2 2026-05-03 04:04 794K
20260503T00Z_MSC_GDPS_RelativeHumidity_IsbL-0200_LatLon0.15_PT045H.grib2 2026-05-03 04:04 709K
20260503T00Z_MSC_GDPS_RelativeHumidity_IsbL-0225_LatLon0.15_PT045H.grib2 2026-05-03 04:04 796K
20260503T00Z_MSC_GDPS_RelativeHumidity_IsbL-0250_LatLon0.15_PT045H.grib2 2026-05-03 04:04 874K
20260503T00Z_MSC_GDPS_RelativeHumidity_IsbL-0275_LatLon0.15_PT045H.grib2 2026-05-03 04:04 895K
20260503T00Z_MSC_GDPS_RelativeHumidity_IsbL-0300_LatLon0.15_PT045H.grib2 2026-05-03 04:04 934K
20260503T00Z_MSC_GDPS_RelativeHumidity_IsbL-0350_LatLon0.15_PT045H.grib2 2026-05-03 04:04 956K
20260503T00Z_MSC_GDPS_RelativeHumidity_IsbL-0400_LatLon0.15_PT045H.grib2 2026-05-03 04:04 1.0M
20260503T00Z_MSC_GDPS_RelativeHumidity_IsbL-0450_LatLon0.15_PT045H.grib2 2026-05-03 04:04 1.0M
20260503T00Z_MSC_GDPS_RelativeHumidity_IsbL-0500_LatLon0.15_PT045H.grib2 2026-05-03 04:04 1.0M
20260503T00Z_MSC_GDPS_RelativeHumidity_IsbL-0550_LatLon0.15_PT045H.grib2 2026-05-03 04:04 1.1M
20260503T00Z_MSC_GDPS_RelativeHumidity_IsbL-0600_LatLon0.15_PT045H.grib2 2026-05-03 04:04 1.1M
20260503T00Z_MSC_GDPS_RelativeHumidity_IsbL-0650_LatLon0.15_PT045H.grib2 2026-05-03 04:04 1.1M
20260503T00Z_MSC_GDPS_RelativeHumidity_IsbL-0700_LatLon0.15_PT045H.grib2 2026-05-03 04:04 1.1M
20260503T00Z_MSC_GDPS_RelativeHumidity_IsbL-0750_LatLon0.15_PT045H.grib2 2026-05-03 04:04 1.2M
20260503T00Z_MSC_GDPS_RelativeHumidity_IsbL-0800_LatLon0.15_PT045H.grib2 2026-05-03 04:04 1.2M
20260503T00Z_MSC_GDPS_RelativeHumidity_IsbL-0850_LatLon0.15_PT045H.grib2 2026-05-03 04:04 1.3M
20260503T00Z_MSC_GDPS_RelativeHumidity_IsbL-0875_LatLon0.15_PT045H.grib2 2026-05-03 04:04 1.3M
20260503T00Z_MSC_GDPS_RelativeHumidity_IsbL-0900_LatLon0.15_PT045H.grib2 2026-05-03 04:04 1.3M
20260503T00Z_MSC_GDPS_RelativeHumidity_IsbL-0925_LatLon0.15_PT045H.grib2 2026-05-03 04:04 1.2M
20260503T00Z_MSC_GDPS_RelativeHumidity_IsbL-0950_LatLon0.15_PT045H.grib2 2026-05-03 04:04 1.2M
20260503T00Z_MSC_GDPS_RelativeHumidity_IsbL-0970_LatLon0.15_PT045H.grib2 2026-05-03 04:04 1.2M
20260503T00Z_MSC_GDPS_RelativeHumidity_IsbL-0985_LatLon0.15_PT045H.grib2 2026-05-03 04:04 1.1M
20260503T00Z_MSC_GDPS_RelativeHumidity_IsbL-1000_LatLon0.15_PT045H.grib2 2026-05-03 04:04 1.2M
20260503T00Z_MSC_GDPS_RelativeHumidity_IsbL-1015_LatLon0.15_PT045H.grib2 2026-05-03 04:04 1.0M
20260503T00Z_MSC_GDPS_RelativeVorticity_IsbL-0200_LatLon0.15_PT045H.grib2 2026-05-03 04:04 1.5M
20260503T00Z_MSC_GDPS_RelativeVorticity_IsbL-0250_LatLon0.15_PT045H.grib2 2026-05-03 04:04 1.3M
20260503T00Z_MSC_GDPS_RelativeVorticity_IsbL-0500_LatLon0.15_PT045H.grib2 2026-05-03 04:04 1.4M
20260503T00Z_MSC_GDPS_RelativeVorticity_IsbL-0700_LatLon0.15_PT045H.grib2 2026-05-03 04:04 1.6M
20260503T00Z_MSC_GDPS_RelativeVorticity_IsbL-0850_LatLon0.15_PT045H.grib2 2026-05-03 04:04 1.6M
20260503T00Z_MSC_GDPS_Runoff-Accum_Sfc_LatLon0.15_PT045H.grib2 2026-05-03 04:04 119K
20260503T00Z_MSC_GDPS_SensibleHeatNetFlux_Sfc_LatLon0.15_PT045H.grib2 2026-05-03 04:04 612K
20260503T00Z_MSC_GDPS_ShowalterIndex_IsbL-0500_LatLon0.15_PT045H.grib2 2026-05-03 04:04 6.2M
20260503T00Z_MSC_GDPS_Snow-Accum1h_Sfc_LatLon0.15_PT045H.grib2 2026-05-03 04:04 1.1M
20260503T00Z_MSC_GDPS_Snow-Accum3h_Sfc_LatLon0.15_PT045H.grib2 2026-05-03 04:04 1.1M
20260503T00Z_MSC_GDPS_Snow-Accum_Sfc_LatLon0.15_PT045H.grib2 2026-05-03 04:04 1.8M
20260503T00Z_MSC_GDPS_SnowDensity_Sfc_LatLon0.15_PT045H.grib2 2026-05-03 04:04 254K
20260503T00Z_MSC_GDPS_SnowDepth_Sfc_LatLon0.15_PT045H.grib2 2026-05-03 04:04 1.7M
20260503T00Z_MSC_GDPS_SoilTemp_DBS-0to10cm_LatLon0.15_PT045H.grib2 2026-05-03 04:04 504K
20260503T00Z_MSC_GDPS_SoilTemp_Sfc_LatLon0.15_PT045H.grib2 2026-05-03 04:04 568K
20260503T00Z_MSC_GDPS_SoilVolumetricIceContent_Sfc_LatLon0.15_PT045H.grib2 2026-05-03 04:04 193K
20260503T00Z_MSC_GDPS_SoilVolumetricWaterContent_DBS-0to10cm_LatLon0.15_PT045H.grib2 2026-05-03 04:04 589K
20260503T00Z_MSC_GDPS_SoilVolumetricWaterContent_DBS-0to1cm_LatLon0.15_PT045H.grib2 2026-05-03 04:04 648K
20260503T00Z_MSC_GDPS_SpecificHumidity_AGL-120m_LatLon0.15_PT045H.grib2 2026-05-03 04:04 1.1M
20260503T00Z_MSC_GDPS_SpecificHumidity_AGL-2m_LatLon0.15_PT045H.grib2 2026-05-03 04:04 1.2M
20260503T00Z_MSC_GDPS_SpecificHumidity_AGL-40m_LatLon0.15_PT045H.grib2 2026-05-03 04:04 1.1M
20260503T00Z_MSC_GDPS_SpecificHumidity_AGL-80m_LatLon0.15_PT045H.grib2 2026-05-03 04:04 1.1M
20260503T00Z_MSC_GDPS_SpecificHumidity_IsbL-0001_LatLon0.15_PT045H.grib2 2026-05-03 04:04 1.4M
20260503T00Z_MSC_GDPS_SpecificHumidity_IsbL-0005_LatLon0.15_PT045H.grib2 2026-05-03 04:04 1.2M
20260503T00Z_MSC_GDPS_SpecificHumidity_IsbL-0010_LatLon0.15_PT045H.grib2 2026-05-03 04:04 1.3M
20260503T00Z_MSC_GDPS_SpecificHumidity_IsbL-0020_LatLon0.15_PT045H.grib2 2026-05-03 04:04 1.4M
20260503T00Z_MSC_GDPS_SpecificHumidity_IsbL-0030_LatLon0.15_PT045H.grib2 2026-05-03 04:04 1.3M
20260503T00Z_MSC_GDPS_SpecificHumidity_IsbL-0050_LatLon0.15_PT045H.grib2 2026-05-03 04:04 1.4M
20260503T00Z_MSC_GDPS_SpecificHumidity_IsbL-0100_LatLon0.15_PT045H.grib2 2026-05-03 04:04 1.4M
20260503T00Z_MSC_GDPS_SpecificHumidity_IsbL-0150_LatLon0.15_PT045H.grib2 2026-05-03 04:04 1.3M
20260503T00Z_MSC_GDPS_SpecificHumidity_IsbL-0175_LatLon0.15_PT045H.grib2 2026-05-03 04:04 1.3M
20260503T00Z_MSC_GDPS_SpecificHumidity_IsbL-0200_LatLon0.15_PT045H.grib2 2026-05-03 04:04 1.3M
20260503T00Z_MSC_GDPS_SpecificHumidity_IsbL-0225_LatLon0.15_PT045H.grib2 2026-05-03 04:04 1.3M
20260503T00Z_MSC_GDPS_SpecificHumidity_IsbL-0250_LatLon0.15_PT045H.grib2 2026-05-03 04:04 1.4M
20260503T00Z_MSC_GDPS_SpecificHumidity_IsbL-0275_LatLon0.15_PT045H.grib2 2026-05-03 04:04 1.3M
20260503T00Z_MSC_GDPS_SpecificHumidity_IsbL-0300_LatLon0.15_PT045H.grib2 2026-05-03 04:04 1.2M
20260503T00Z_MSC_GDPS_SpecificHumidity_IsbL-0350_LatLon0.15_PT045H.grib2 2026-05-03 04:04 1.2M
20260503T00Z_MSC_GDPS_SpecificHumidity_IsbL-0400_LatLon0.15_PT045H.grib2 2026-05-03 04:04 1.5M
20260503T00Z_MSC_GDPS_SpecificHumidity_IsbL-0450_LatLon0.15_PT045H.grib2 2026-05-03 04:04 1.6M
20260503T00Z_MSC_GDPS_SpecificHumidity_IsbL-0500_LatLon0.15_PT045H.grib2 2026-05-03 04:04 1.4M
20260503T00Z_MSC_GDPS_SpecificHumidity_IsbL-0550_LatLon0.15_PT045H.grib2 2026-05-03 04:04 1.6M
20260503T00Z_MSC_GDPS_SpecificHumidity_IsbL-0600_LatLon0.15_PT045H.grib2 2026-05-03 04:04 1.7M
20260503T00Z_MSC_GDPS_SpecificHumidity_IsbL-0650_LatLon0.15_PT045H.grib2 2026-05-03 04:04 1.5M
20260503T00Z_MSC_GDPS_SpecificHumidity_IsbL-0700_LatLon0.15_PT045H.grib2 2026-05-03 04:04 1.6M
20260503T00Z_MSC_GDPS_SpecificHumidity_IsbL-0750_LatLon0.15_PT045H.grib2 2026-05-03 04:04 1.7M
20260503T00Z_MSC_GDPS_SpecificHumidity_IsbL-0800_LatLon0.15_PT045H.grib2 2026-05-03 04:04 1.8M
20260503T00Z_MSC_GDPS_SpecificHumidity_IsbL-0850_LatLon0.15_PT045H.grib2 2026-05-03 04:04 1.9M
20260503T00Z_MSC_GDPS_SpecificHumidity_IsbL-0875_LatLon0.15_PT045H.grib2 2026-05-03 04:04 1.9M
20260503T00Z_MSC_GDPS_SpecificHumidity_IsbL-0900_LatLon0.15_PT045H.grib2 2026-05-03 04:04 1.9M
20260503T00Z_MSC_GDPS_SpecificHumidity_IsbL-0925_LatLon0.15_PT045H.grib2 2026-05-03 04:04 1.6M
20260503T00Z_MSC_GDPS_SpecificHumidity_IsbL-0950_LatLon0.15_PT045H.grib2 2026-05-03 04:04 1.5M
20260503T00Z_MSC_GDPS_SpecificHumidity_IsbL-0970_LatLon0.15_PT045H.grib2 2026-05-03 04:04 1.5M
20260503T00Z_MSC_GDPS_SpecificHumidity_IsbL-0985_LatLon0.15_PT045H.grib2 2026-05-03 04:04 1.5M
20260503T00Z_MSC_GDPS_SpecificHumidity_IsbL-1000_LatLon0.15_PT045H.grib2 2026-05-03 04:04 1.5M
20260503T00Z_MSC_GDPS_SpecificHumidity_IsbL-1015_LatLon0.15_PT045H.grib2 2026-05-03 04:04 1.4M
20260503T00Z_MSC_GDPS_SpecificHumidity_Sfc_LatLon0.15_PT045H.grib2 2026-05-03 04:04 660K
20260503T00Z_MSC_GDPS_Thickness_IsbL-0850to0700_LatLon0.15_PT045H.grib2 2026-05-03 04:04 466K
20260503T00Z_MSC_GDPS_Thickness_IsbL-1000to0500_LatLon0.15_PT045H.grib2 2026-05-03 04:04 371K
20260503T00Z_MSC_GDPS_Thickness_IsbL-1000to0850_LatLon0.15_PT045H.grib2 2026-05-03 04:04 485K
20260503T00Z_MSC_GDPS_TotalCloudCover_Sfc_LatLon0.15_PT045H.grib2 2026-05-03 04:04 822K
20260503T00Z_MSC_GDPS_TotalTotalsIndex_Sfc_LatLon0.15_PT045H.grib2 2026-05-03 04:04 6.2M
20260503T00Z_MSC_GDPS_UVIndex-ClearSky_Sfc_LatLon0.15_PT045H.grib2 2026-05-03 04:45 1.0M
20260503T00Z_MSC_GDPS_UVIndex_Sfc_LatLon0.15_PT045H.grib2 2026-05-03 04:45 1.5M
20260503T00Z_MSC_GDPS_UpwardLongwaveRadiationFlux_NTAtm_LatLon0.15_PT045H.grib2 2026-05-03 04:04 835K
20260503T00Z_MSC_GDPS_VerticalVelocity_IsbL-0200_LatLon0.15_PT045H.grib2 2026-05-03 04:04 946K
20260503T00Z_MSC_GDPS_VerticalVelocity_IsbL-0250_LatLon0.15_PT045H.grib2 2026-05-03 04:04 1.1M
20260503T00Z_MSC_GDPS_VerticalVelocity_IsbL-0500_LatLon0.15_PT045H.grib2 2026-05-03 04:04 1.0M
20260503T00Z_MSC_GDPS_VerticalVelocity_IsbL-0600_LatLon0.15_PT045H.grib2 2026-05-03 04:04 1.1M
20260503T00Z_MSC_GDPS_VerticalVelocity_IsbL-0700_LatLon0.15_PT045H.grib2 2026-05-03 04:04 1.4M
20260503T00Z_MSC_GDPS_VerticalVelocity_IsbL-0850_LatLon0.15_PT045H.grib2 2026-05-03 04:04 1.6M
20260503T00Z_MSC_GDPS_WindChill_Sfc_LatLon0.15_PT045H.grib2 2026-05-03 04:04 5.3M
20260503T00Z_MSC_GDPS_WindDir_AGL-10m_LatLon0.15_PT045H.grib2 2026-05-03 04:04 1.3M
20260503T00Z_MSC_GDPS_WindDir_AGL-120m_LatLon0.15_PT045H.grib2 2026-05-03 04:04 1.3M
20260503T00Z_MSC_GDPS_WindDir_AGL-40m_LatLon0.15_PT045H.grib2 2026-05-03 04:04 1.4M
20260503T00Z_MSC_GDPS_WindDir_AGL-80m_LatLon0.15_PT045H.grib2 2026-05-03 04:04 1.4M
20260503T00Z_MSC_GDPS_WindDir_IsbL-0001_LatLon0.15_PT045H.grib2 2026-05-03 04:04 676K
20260503T00Z_MSC_GDPS_WindDir_IsbL-0005_LatLon0.15_PT045H.grib2 2026-05-03 04:04 836K
20260503T00Z_MSC_GDPS_WindDir_IsbL-0010_LatLon0.15_PT045H.grib2 2026-05-03 04:04 844K
20260503T00Z_MSC_GDPS_WindDir_IsbL-0020_LatLon0.15_PT045H.grib2 2026-05-03 04:04 948K
20260503T00Z_MSC_GDPS_WindDir_IsbL-0030_LatLon0.15_PT045H.grib2 2026-05-03 04:04 958K
20260503T00Z_MSC_GDPS_WindDir_IsbL-0050_LatLon0.15_PT045H.grib2 2026-05-03 04:04 960K
20260503T00Z_MSC_GDPS_WindDir_IsbL-0100_LatLon0.15_PT045H.grib2 2026-05-03 04:04 1.0M
20260503T00Z_MSC_GDPS_WindDir_IsbL-0150_LatLon0.15_PT045H.grib2 2026-05-03 04:04 1.0M
20260503T00Z_MSC_GDPS_WindDir_IsbL-0175_LatLon0.15_PT045H.grib2 2026-05-03 04:04 1.1M
20260503T00Z_MSC_GDPS_WindDir_IsbL-0200_LatLon0.15_PT045H.grib2 2026-05-03 04:04 1.1M
20260503T00Z_MSC_GDPS_WindDir_IsbL-0225_LatLon0.15_PT045H.grib2 2026-05-03 04:04 1.1M
20260503T00Z_MSC_GDPS_WindDir_IsbL-0250_LatLon0.15_PT045H.grib2 2026-05-03 04:04 1.1M
20260503T00Z_MSC_GDPS_WindDir_IsbL-0275_LatLon0.15_PT045H.grib2 2026-05-03 04:04 1.2M
20260503T00Z_MSC_GDPS_WindDir_IsbL-0300_LatLon0.15_PT045H.grib2 2026-05-03 04:04 1.2M
20260503T00Z_MSC_GDPS_WindDir_IsbL-0350_LatLon0.15_PT045H.grib2 2026-05-03 04:04 1.2M
20260503T00Z_MSC_GDPS_WindDir_IsbL-0400_LatLon0.15_PT045H.grib2 2026-05-03 04:04 1.3M
20260503T00Z_MSC_GDPS_WindDir_IsbL-0450_LatLon0.15_PT045H.grib2 2026-05-03 04:04 1.3M
20260503T00Z_MSC_GDPS_WindDir_IsbL-0500_LatLon0.15_PT045H.grib2 2026-05-03 04:04 1.3M
20260503T00Z_MSC_GDPS_WindDir_IsbL-0550_LatLon0.15_PT045H.grib2 2026-05-03 04:04 1.4M
20260503T00Z_MSC_GDPS_WindDir_IsbL-0600_LatLon0.15_PT045H.grib2 2026-05-03 04:04 1.4M
20260503T00Z_MSC_GDPS_WindDir_IsbL-0650_LatLon0.15_PT045H.grib2 2026-05-03 04:04 1.5M
20260503T00Z_MSC_GDPS_WindDir_IsbL-0700_LatLon0.15_PT045H.grib2 2026-05-03 04:04 1.6M
20260503T00Z_MSC_GDPS_WindDir_IsbL-0750_LatLon0.15_PT045H.grib2 2026-05-03 04:04 1.7M
20260503T00Z_MSC_GDPS_WindDir_IsbL-0800_LatLon0.15_PT045H.grib2 2026-05-03 04:04 1.8M
20260503T00Z_MSC_GDPS_WindDir_IsbL-0850_LatLon0.15_PT045H.grib2 2026-05-03 04:04 1.9M
20260503T00Z_MSC_GDPS_WindDir_IsbL-0875_LatLon0.15_PT045H.grib2 2026-05-03 04:04 1.9M
20260503T00Z_MSC_GDPS_WindDir_IsbL-0900_LatLon0.15_PT045H.grib2 2026-05-03 04:04 2.0M
20260503T00Z_MSC_GDPS_WindDir_IsbL-0925_LatLon0.15_PT045H.grib2 2026-05-03 04:04 2.0M
20260503T00Z_MSC_GDPS_WindDir_IsbL-0950_LatLon0.15_PT045H.grib2 2026-05-03 04:04 1.9M
20260503T00Z_MSC_GDPS_WindDir_IsbL-0970_LatLon0.15_PT045H.grib2 2026-05-03 04:04 2.0M
20260503T00Z_MSC_GDPS_WindDir_IsbL-0985_LatLon0.15_PT045H.grib2 2026-05-03 04:04 2.0M
20260503T00Z_MSC_GDPS_WindDir_IsbL-1000_LatLon0.15_PT045H.grib2 2026-05-03 04:04 2.1M
20260503T00Z_MSC_GDPS_WindDir_IsbL-1015_LatLon0.15_PT045H.grib2 2026-05-03 04:04 2.0M
20260503T00Z_MSC_GDPS_WindGust-Max_AGL-10m_LatLon0.15_PT045H.grib2 2026-05-03 04:04 2.2M
20260503T00Z_MSC_GDPS_WindGust-Min_AGL-10m_LatLon0.15_PT045H.grib2 2026-05-03 04:04 2.2M
20260503T00Z_MSC_GDPS_WindGust_AGL-10m_LatLon0.15_PT045H.grib2 2026-05-03 04:04 2.2M
20260503T00Z_MSC_GDPS_WindSpeed_AGL-10m_LatLon0.15_PT045H.grib2 2026-05-03 04:04 1.1M
20260503T00Z_MSC_GDPS_WindSpeed_AGL-120m_LatLon0.15_PT045H.grib2 2026-05-03 04:04 1.2M
20260503T00Z_MSC_GDPS_WindSpeed_AGL-40m_LatLon0.15_PT045H.grib2 2026-05-03 04:04 1.2M
20260503T00Z_MSC_GDPS_WindSpeed_AGL-80m_LatLon0.15_PT045H.grib2 2026-05-03 04:04 1.2M
20260503T00Z_MSC_GDPS_WindSpeed_IsbL-0001_LatLon0.15_PT045H.grib2 2026-05-03 04:04 649K
20260503T00Z_MSC_GDPS_WindSpeed_IsbL-0005_LatLon0.15_PT045H.grib2 2026-05-03 04:04 620K
20260503T00Z_MSC_GDPS_WindSpeed_IsbL-0010_LatLon0.15_PT045H.grib2 2026-05-03 04:04 634K
20260503T00Z_MSC_GDPS_WindSpeed_IsbL-0020_LatLon0.15_PT045H.grib2 2026-05-03 04:04 863K
20260503T00Z_MSC_GDPS_WindSpeed_IsbL-0030_LatLon0.15_PT045H.grib2 2026-05-03 04:04 873K
20260503T00Z_MSC_GDPS_WindSpeed_IsbL-0050_LatLon0.15_PT045H.grib2 2026-05-03 04:04 917K
20260503T00Z_MSC_GDPS_WindSpeed_IsbL-0100_LatLon0.15_PT045H.grib2 2026-05-03 04:04 1.1M
20260503T00Z_MSC_GDPS_WindSpeed_IsbL-0150_LatLon0.15_PT045H.grib2 2026-05-03 04:04 949K
20260503T00Z_MSC_GDPS_WindSpeed_IsbL-0175_LatLon0.15_PT045H.grib2 2026-05-03 04:04 1.0M
20260503T00Z_MSC_GDPS_WindSpeed_IsbL-0200_LatLon0.15_PT045H.grib2 2026-05-03 04:04 1.1M
20260503T00Z_MSC_GDPS_WindSpeed_IsbL-0225_LatLon0.15_PT045H.grib2 2026-05-03 04:04 1.1M
20260503T00Z_MSC_GDPS_WindSpeed_IsbL-0250_LatLon0.15_PT045H.grib2 2026-05-03 04:04 1.1M
20260503T00Z_MSC_GDPS_WindSpeed_IsbL-0275_LatLon0.15_PT045H.grib2 2026-05-03 04:04 1.1M
20260503T00Z_MSC_GDPS_WindSpeed_IsbL-0300_LatLon0.15_PT045H.grib2 2026-05-03 04:04 1.1M
20260503T00Z_MSC_GDPS_WindSpeed_IsbL-0350_LatLon0.15_PT045H.grib2 2026-05-03 04:04 1.1M
20260503T00Z_MSC_GDPS_WindSpeed_IsbL-0400_LatLon0.15_PT045H.grib2 2026-05-03 04:04 1.1M
20260503T00Z_MSC_GDPS_WindSpeed_IsbL-0450_LatLon0.15_PT045H.grib2 2026-05-03 04:04 1.1M
20260503T00Z_MSC_GDPS_WindSpeed_IsbL-0500_LatLon0.15_PT045H.grib2 2026-05-03 04:04 1.1M
20260503T00Z_MSC_GDPS_WindSpeed_IsbL-0550_LatLon0.15_PT045H.grib2 2026-05-03 04:04 1.1M
20260503T00Z_MSC_GDPS_WindSpeed_IsbL-0600_LatLon0.15_PT045H.grib2 2026-05-03 04:04 1.1M
20260503T00Z_MSC_GDPS_WindSpeed_IsbL-0650_LatLon0.15_PT045H.grib2 2026-05-03 04:04 1.2M
20260503T00Z_MSC_GDPS_WindSpeed_IsbL-0700_LatLon0.15_PT045H.grib2 2026-05-03 04:04 1.5M
20260503T00Z_MSC_GDPS_WindSpeed_IsbL-0750_LatLon0.15_PT045H.grib2 2026-05-03 04:04 1.6M
20260503T00Z_MSC_GDPS_WindSpeed_IsbL-0800_LatLon0.15_PT045H.grib2 2026-05-03 04:04 1.6M
20260503T00Z_MSC_GDPS_WindSpeed_IsbL-0850_LatLon0.15_PT045H.grib2 2026-05-03 04:04 1.7M
20260503T00Z_MSC_GDPS_WindSpeed_IsbL-0875_LatLon0.15_PT045H.grib2 2026-05-03 04:04 1.8M
20260503T00Z_MSC_GDPS_WindSpeed_IsbL-0900_LatLon0.15_PT045H.grib2 2026-05-03 04:04 1.8M
20260503T00Z_MSC_GDPS_WindSpeed_IsbL-0925_LatLon0.15_PT045H.grib2 2026-05-03 04:04 1.9M
20260503T00Z_MSC_GDPS_WindSpeed_IsbL-0950_LatLon0.15_PT045H.grib2 2026-05-03 04:04 1.9M
20260503T00Z_MSC_GDPS_WindSpeed_IsbL-0970_LatLon0.15_PT045H.grib2 2026-05-03 04:04 1.9M
20260503T00Z_MSC_GDPS_WindSpeed_IsbL-0985_LatLon0.15_PT045H.grib2 2026-05-03 04:04 1.9M
20260503T00Z_MSC_GDPS_WindSpeed_IsbL-1000_LatLon0.15_PT045H.grib2 2026-05-03 04:04 1.8M
20260503T00Z_MSC_GDPS_WindSpeed_IsbL-1015_LatLon0.15_PT045H.grib2 2026-05-03 04:04 1.8M
20260503T00Z_MSC_GDPS_WindU_AGL-10m_LatLon0.15_PT045H.grib2 2026-05-03 04:04 1.3M
20260503T00Z_MSC_GDPS_WindU_AGL-120m_LatLon0.15_PT045H.grib2 2026-05-03 04:04 1.0M
20260503T00Z_MSC_GDPS_WindU_AGL-40m_LatLon0.15_PT045H.grib2 2026-05-03 04:04 969K
20260503T00Z_MSC_GDPS_WindU_AGL-80m_LatLon0.15_PT045H.grib2 2026-05-03 04:04 1.0M
20260503T00Z_MSC_GDPS_WindU_IsbL-0001_LatLon0.15_PT045H.grib2 2026-05-03 04:04 506K
20260503T00Z_MSC_GDPS_WindU_IsbL-0005_LatLon0.15_PT045H.grib2 2026-05-03 04:04 697K
20260503T00Z_MSC_GDPS_WindU_IsbL-0010_LatLon0.15_PT045H.grib2 2026-05-03 04:04 708K
20260503T00Z_MSC_GDPS_WindU_IsbL-0020_LatLon0.15_PT045H.grib2 2026-05-03 04:04 736K
20260503T00Z_MSC_GDPS_WindU_IsbL-0030_LatLon0.15_PT045H.grib2 2026-05-03 04:04 747K
20260503T00Z_MSC_GDPS_WindU_IsbL-0050_LatLon0.15_PT045H.grib2 2026-05-03 04:04 706K
20260503T00Z_MSC_GDPS_WindU_IsbL-0100_LatLon0.15_PT045H.grib2 2026-05-03 04:04 933K
20260503T00Z_MSC_GDPS_WindU_IsbL-0150_LatLon0.15_PT045H.grib2 2026-05-03 04:04 1.0M
20260503T00Z_MSC_GDPS_WindU_IsbL-0175_LatLon0.15_PT045H.grib2 2026-05-03 04:04 1.0M
20260503T00Z_MSC_GDPS_WindU_IsbL-0200_LatLon0.15_PT045H.grib2 2026-05-03 04:04 845K
20260503T00Z_MSC_GDPS_WindU_IsbL-0225_LatLon0.15_PT045H.grib2 2026-05-03 04:04 855K
20260503T00Z_MSC_GDPS_WindU_IsbL-0250_LatLon0.15_PT045H.grib2 2026-05-03 04:04 857K
20260503T00Z_MSC_GDPS_WindU_IsbL-0275_LatLon0.15_PT045H.grib2 2026-05-03 04:04 884K
20260503T00Z_MSC_GDPS_WindU_IsbL-0300_LatLon0.15_PT045H.grib2 2026-05-03 04:04 877K
20260503T00Z_MSC_GDPS_WindU_IsbL-0350_LatLon0.15_PT045H.grib2 2026-05-03 04:04 891K
20260503T00Z_MSC_GDPS_WindU_IsbL-0400_LatLon0.15_PT045H.grib2 2026-05-03 04:04 1.1M
20260503T00Z_MSC_GDPS_WindU_IsbL-0450_LatLon0.15_PT045H.grib2 2026-05-03 04:04 1.1M
20260503T00Z_MSC_GDPS_WindU_IsbL-0500_LatLon0.15_PT045H.grib2 2026-05-03 04:04 1.1M
20260503T00Z_MSC_GDPS_WindU_IsbL-0550_LatLon0.15_PT045H.grib2 2026-05-03 04:04 1.1M
20260503T00Z_MSC_GDPS_WindU_IsbL-0600_LatLon0.15_PT045H.grib2 2026-05-03 04:04 1.2M
20260503T00Z_MSC_GDPS_WindU_IsbL-0650_LatLon0.15_PT045H.grib2 2026-05-03 04:04 1.2M
20260503T00Z_MSC_GDPS_WindU_IsbL-0700_LatLon0.15_PT045H.grib2 2026-05-03 04:04 1.2M
20260503T00Z_MSC_GDPS_WindU_IsbL-0750_LatLon0.15_PT045H.grib2 2026-05-03 04:04 1.2M
20260503T00Z_MSC_GDPS_WindU_IsbL-0800_LatLon0.15_PT045H.grib2 2026-05-03 04:04 1.3M
20260503T00Z_MSC_GDPS_WindU_IsbL-0850_LatLon0.15_PT045H.grib2 2026-05-03 04:04 1.4M
20260503T00Z_MSC_GDPS_WindU_IsbL-0875_LatLon0.15_PT045H.grib2 2026-05-03 04:04 1.5M
20260503T00Z_MSC_GDPS_WindU_IsbL-0900_LatLon0.15_PT045H.grib2 2026-05-03 04:04 1.5M
20260503T00Z_MSC_GDPS_WindU_IsbL-0925_LatLon0.15_PT045H.grib2 2026-05-03 04:04 1.5M
20260503T00Z_MSC_GDPS_WindU_IsbL-0950_LatLon0.15_PT045H.grib2 2026-05-03 04:04 1.4M
20260503T00Z_MSC_GDPS_WindU_IsbL-0970_LatLon0.15_PT045H.grib2 2026-05-03 04:04 1.4M
20260503T00Z_MSC_GDPS_WindU_IsbL-0985_LatLon0.15_PT045H.grib2 2026-05-03 04:04 1.4M
20260503T00Z_MSC_GDPS_WindU_IsbL-1000_LatLon0.15_PT045H.grib2 2026-05-03 04:04 1.4M
20260503T00Z_MSC_GDPS_WindU_IsbL-1015_LatLon0.15_PT045H.grib2 2026-05-03 04:04 1.3M
20260503T00Z_MSC_GDPS_WindV_AGL-10m_LatLon0.15_PT045H.grib2 2026-05-03 04:04 1.6M
20260503T00Z_MSC_GDPS_WindV_AGL-120m_LatLon0.15_PT045H.grib2 2026-05-03 04:04 973K
20260503T00Z_MSC_GDPS_WindV_AGL-40m_LatLon0.15_PT045H.grib2 2026-05-03 04:04 1.2M
20260503T00Z_MSC_GDPS_WindV_AGL-80m_LatLon0.15_PT045H.grib2 2026-05-03 04:04 1.0M
20260503T00Z_MSC_GDPS_WindV_IsbL-0001_LatLon0.15_PT045H.grib2 2026-05-03 04:04 719K
20260503T00Z_MSC_GDPS_WindV_IsbL-0005_LatLon0.15_PT045H.grib2 2026-05-03 04:04 861K
20260503T00Z_MSC_GDPS_WindV_IsbL-0010_LatLon0.15_PT045H.grib2 2026-05-03 04:04 891K
20260503T00Z_MSC_GDPS_WindV_IsbL-0020_LatLon0.15_PT045H.grib2 2026-05-03 04:04 860K
20260503T00Z_MSC_GDPS_WindV_IsbL-0030_LatLon0.15_PT045H.grib2 2026-05-03 04:04 945K
20260503T00Z_MSC_GDPS_WindV_IsbL-0050_LatLon0.15_PT045H.grib2 2026-05-03 04:04 1.0M
20260503T00Z_MSC_GDPS_WindV_IsbL-0100_LatLon0.15_PT045H.grib2 2026-05-03 04:04 860K
20260503T00Z_MSC_GDPS_WindV_IsbL-0150_LatLon0.15_PT045H.grib2 2026-05-03 04:04 1.0M
20260503T00Z_MSC_GDPS_WindV_IsbL-0175_LatLon0.15_PT045H.grib2 2026-05-03 04:04 1.0M
20260503T00Z_MSC_GDPS_WindV_IsbL-0200_LatLon0.15_PT045H.grib2 2026-05-03 04:04 842K
20260503T00Z_MSC_GDPS_WindV_IsbL-0225_LatLon0.15_PT045H.grib2 2026-05-03 04:04 908K
20260503T00Z_MSC_GDPS_WindV_IsbL-0250_LatLon0.15_PT045H.grib2 2026-05-03 04:04 910K
20260503T00Z_MSC_GDPS_WindV_IsbL-0275_LatLon0.15_PT045H.grib2 2026-05-03 04:04 936K
20260503T00Z_MSC_GDPS_WindV_IsbL-0300_LatLon0.15_PT045H.grib2 2026-05-03 04:04 929K
20260503T00Z_MSC_GDPS_WindV_IsbL-0350_LatLon0.15_PT045H.grib2 2026-05-03 04:04 942K
20260503T00Z_MSC_GDPS_WindV_IsbL-0400_LatLon0.15_PT045H.grib2 2026-05-03 04:04 885K
20260503T00Z_MSC_GDPS_WindV_IsbL-0450_LatLon0.15_PT045H.grib2 2026-05-03 04:04 1.1M
20260503T00Z_MSC_GDPS_WindV_IsbL-0500_LatLon0.15_PT045H.grib2 2026-05-03 04:04 1.1M
20260503T00Z_MSC_GDPS_WindV_IsbL-0550_LatLon0.15_PT045H.grib2 2026-05-03 04:04 1.1M
20260503T00Z_MSC_GDPS_WindV_IsbL-0600_LatLon0.15_PT045H.grib2 2026-05-03 04:04 1.1M
20260503T00Z_MSC_GDPS_WindV_IsbL-0650_LatLon0.15_PT045H.grib2 2026-05-03 04:04 1.2M
20260503T00Z_MSC_GDPS_WindV_IsbL-0700_LatLon0.15_PT045H.grib2 2026-05-03 04:04 1.2M
20260503T00Z_MSC_GDPS_WindV_IsbL-0750_LatLon0.15_PT045H.grib2 2026-05-03 04:04 1.3M
20260503T00Z_MSC_GDPS_WindV_IsbL-0800_LatLon0.15_PT045H.grib2 2026-05-03 04:04 1.3M
20260503T00Z_MSC_GDPS_WindV_IsbL-0850_LatLon0.15_PT045H.grib2 2026-05-03 04:04 1.4M
20260503T00Z_MSC_GDPS_WindV_IsbL-0875_LatLon0.15_PT045H.grib2 2026-05-03 04:04 1.4M
20260503T00Z_MSC_GDPS_WindV_IsbL-0900_LatLon0.15_PT045H.grib2 2026-05-03 04:04 1.5M
20260503T00Z_MSC_GDPS_WindV_IsbL-0925_LatLon0.15_PT045H.grib2 2026-05-03 04:04 1.5M
20260503T00Z_MSC_GDPS_WindV_IsbL-0950_LatLon0.15_PT045H.grib2 2026-05-03 04:04 1.4M
20260503T00Z_MSC_GDPS_WindV_IsbL-0970_LatLon0.15_PT045H.grib2 2026-05-03 04:04 1.4M
20260503T00Z_MSC_GDPS_WindV_IsbL-0985_LatLon0.15_PT045H.grib2 2026-05-03 04:04 1.4M
20260503T00Z_MSC_GDPS_WindV_IsbL-1000_LatLon0.15_PT045H.grib2 2026-05-03 04:04 1.7M
20260503T00Z_MSC_GDPS_WindV_IsbL-1015_LatLon0.15_PT045H.grib2 2026-05-03 04:04 1.6M